Regional Weather Roundup
Issued by NWS Jackson, KY

Home | Current Version | Previous Version | Graphics & Text | Print | Product List | Glossary On
Versions: 1 2 3 4 5 6 7 8 9 10 11 12 13 14 15 16 17 18 19 20 21 22 23 24 25 26 27 28 29 30 31 32 33 34 35 36 37 38 39 40 41 42 43 44 45 46 47 48 49 50
535
ASUS43 KJKL 262210
RWRJKL

EAST KENTUCKY HOURLY WEATHER ROUNDUP
NATIONAL WEATHER SERVICE JACKSON KY
600 PM EDT FRI MAY 26 2017

NOTE: "FAIR" INDICATES FEW OR NO CLOUDS BELOW 12,000 FEET WITH
NO SIGNIFICANT WEATHER AND/OR OBSTRUCTIONS TO VISIBILITY.

* THESE REPORTS ARE NOT UNDER NWS QUALITY CONTROL AND MAY NOT
  REPORT WEATHER SUCH AS PRECIPITATION AND FOG.

KYZ079-080-083-085-087-088-110-112-115-119-120-262300
...EASTERN KENTUCKY...

CITY           SKY/WX    TMP DP  RH WIND       PRES   REMARKS
JACKSON        SUNNY     76  58  53 CALM      29.94S
LONDON         MOSUNNY   78  58  49 SW10      29.94R
SOMERSET*      PTSUNNY   77  59  53 SW3       29.93S
MONTICELLO*    MOSUNNY   80  64  58 S9G21     29.92F
WILLIAMSBURG*  CLEAR     77  61  57 SW7       29.93F
MIDDLESBORO*   SUNNY     78  58  50 S5        29.96R
HARLAN APT*    CLEAR     77  52  41 CALM      29.96R
PIKE CO APT*     N/A     74  53  48 SW8       29.95R
BIG SANDY APT* CLEAR     76  56  48 W5        29.94R
MOREHEAD APT*  CLOUDY    77  55  47 SW9G15    29.93S
$$

KYZ035-036-041-042-044-050-067-078-099-262300
...CENTRAL KENTUCKY...

CITY           SKY/WX    TMP DP  RH WIND       PRES   REMARKS
MT STERLING*   PTSUNNY   75  59  57 SW8       29.93S
FLEMING/MASON* SUNNY     77  58  51 SW12      29.92R
DANVILLE*      MOSUNNY   79  61  53 S10G16    29.91F
LEXINGTON      MOSUNNY   78  61  55 S7        29.90F
FRANKFORT      MOSUNNY   80  61  52 S12       29.86F
LOUISVILLE     MOSUNNY   81  64  56 S15       29.83F
LEBANON*         N/A     79  63  57 S10       29.88F
GLASGOW*       SUNNY     81  63  54 CALM      29.87S
BOWLING GREEN  SUNNY     85  60  42 S15       29.85R
$$

KYZ091>093-OHZ055-061-077-WVZ005-015-034-035-042-262300
...SOUTHERN OHIO/WEST VIRGINIA...

CITY           SKY/WX    TMP DP  RH WIND       PRES   REMARKS
COVINGTON      MOSUNNY   77  60  55 S10       29.87S
COLUMBUS       CLOUDY    74  57  55 W9        29.88R
DAYTON         MOSUNNY   76  55  48 SW13      29.88R
WILMINGTON     SUNNY     75  59  57 S5        29.88R
HUNTINGTON     CLOUDY    77  56  48 SW7       29.90R
CHARLESTON     MOSUNNY   76  54  46 SW7       29.91R
PINEVILLE*     SUNNY     76  52  43 MISG      30.01R
BECKLEY        MOSUNNY   70  50  49 W12       29.97R
BLUEFIELD      SUNNY     68  48  48 W8        29.99S
LOGAN CO APT*    N/A     73  54  49 VRB7      29.95R
$$

VAZ002-007-008-TNZ017-027-036-066-071-262300
...SOUTHWEST VIRGINIA/EAST TENNESSEE...

CITY           SKY/WX    TMP DP  RH WIND       PRES   REMARKS
WISE*          SUNNY     72  48  43 SW3       30.02R
JONESVILLE*      N/A     77  55  47 SW9       29.98S
ABINGDON*      SUNNY     74  54  49 W9        29.99R
BRISTOL        MOSUNNY   75  54  47 SW9       29.97S
MORRISTOWN*    PTCLDY    77  59  53 S8        29.95F
SEVIERVILLE*   CLEAR     79  57  47 SW5       29.94S
KNOXVILLE      MOSUNNY   78  59  51 SW10      29.93
LAFOLLETTE*    CLEAR     77  61  57 S10G16    29.97R
OAK RIDGE      MOSUNNY   80  59  48 S8        29.95F
CROSSVILLE     MOSUNNY   76  60  57 VRB5      29.96F
NASHVILLE      MOSUNNY   86  56  35 S18       29.87S
$$

...KEY TO REMARKS...
VSB - VISIBILITY IN MILES
WCI - WIND CHILL INDEX
HX  - HEAT INDEX

$$




USA.gov is the U.S. government's official web portal to all federal, state and local government web resources and services.